Find Starlink 32907

NORAD ID: 63095 Int'l Des: 2025-037 Owner: SPXS Country: US Constellation: starlink operational
LEOCIRCULAR

Live Position

Loading 3D Globe...

About Starlink 32907

Description loading...

Upcoming Passes

Passes for default location (London). Set your location on the main map for personalized predictions.

Altitude History

Loading altitude history...

Two-Line Element Set

1 63095U 25037U 26109.83464293 .00006544 00000-0 55558-3 0 9997
2 63095 70.0006 250.7669 0003304 266.7116 93.3665 14.98337049 64710
Epoch: Apr 19, 2026 • Age: 7 hours

Current Status

Altitude 575.6 km
Velocity 7.57 km/s
Sub-Earth Point -9.50°S, 175.96°E
Launch Date Feb 23, 2025
Age 1.1 years
Type internet

Technical Details

Classification Payload
Mass 730.00 kg
Dry Mass 700.00 kg
Total Mass 730.00 kg
Length 0.30 m
Diameter 4.10 m
Span 29.00 m
Shape Box + pan
Manufacturer SPXS
Bus Type Starlink V2M
Phase Status In Orbit
Owner/State SPXS/US

Most Searched